Simultaneous Nadir Overpasses (SNOs) Predictions

Prediction of SNOs between NOAA-19 and NPP Satellite Orbit:

Table of predicted SNOs for the next 14.0 days since TLE Epoch: 3/24/2017
Index Date (NOAA-19) Time (NOAA-19) Lat,Lon (NOAA-19) SZA (NOAA-19 ) Date (NPP) Time (NPP) Lat,Lon (NPP) SZA (NPP ) Distance(km) Time Diff (sec)
1 03/30/2017 09:26:28 -80.87, 167.47 99.51 03/30/2017 09:27:34 -80.87, 167.45 99.55 0.45 66
2 03/30/2017 10:17:32 80.88, -25.19 80.46 03/30/2017 10:18:19 80.88, -25.35 80.46 2.78 47
3 03/30/2017 11:08:30 -80.87, 141.85 99.53 03/30/2017 11:09:04 -80.87, 142.02 99.57 3.04 34
4 03/30/2017 11:59:34 80.87, -50.82 80.45 03/30/2017 11:59:49 80.88, -50.78 80.44 0.87 15
5 03/30/2017 12:50:30 -80.88, 116.59 99.59 03/30/2017 12:50:33 -80.88, 116.59 99.59 0.15 3
6 03/30/2017 13:41:34 80.88, -76.07 80.39 03/30/2017 13:41:18 80.88, -76.21 80.42 2.52 16
7 03/30/2017 14:32:32 -80.88, 90.97 99.60 03/30/2017 14:32:03 -80.88, 91.15 99.61 3.22 29
8 03/30/2017 15:23:36 80.88,-101.70 80.38 03/30/2017 15:22:48 80.89,-101.65 80.40 1.31 48




NCC Satellite Simultaneous Nadir Overpasses (SNOs) Prediction Service
